{"data":{"norad_id":58201,"epoch":"2026-09-21T11:12:07.851456Z","epoch_age_seconds":155658,"freshness":"FRESH","line1":"1 58201U 23168C   26264.46675754  .00000222  00000+0  30387-4 0  9990","line2":"2 58201  97.8212 270.4819 0002143  98.2827 261.8633 14.87575636156917","mean_motion":14.87575636,"eccentricity":0.0002143,"inclination_deg":97.8212,"raan_deg":270.4819,"arg_perigee_deg":98.2827,"mean_anomaly_deg":261.8633,"bstar":3.0387e-5,"rev_number":15691,"period_min":96.801800537153,"perigee_km":604.01647599256,"apogee_km":607.00966841351,"semimajor_km":6983.650072203,"source":"CELESTRAK","updated_at":"2026-09-22T09:00:26.538230Z"}}